Location: Unspecified
(0.0000°N, 0.0000°E)
Time: 14:41:53
(UTC+00:00)

Envisat - Pass Details

Date: 08 April 2021
Orbit: 764 x 766 km, 98.1° (Epoch: 16 April)

Event Time Altitude Azimuth Distance (km) Brightness Sun altitude
Rises 04:33:05 0° 31° (NNE) 3,214 6.8 -22.0°
Reaches altitude 10° 04:35:37 10° 41° (NE) 2,291 6.1 -21.4°
Maximum altitude 04:40:02 31° 102° (ESE) 1,318 4.8 -20.3°
Drops below altitude 10° 04:44:28 10° 163° (SSE) 2,301 5.6 -19.2°
Sets 04:47:00 0° 173° (S) 3,229 6.2 -18.6°
